Regional Weather Roundup
Issued by NWS Kansas City/Pleasant Hill, MO

Home | Current Version | Previous Version | Text Only | Print | Product List | Glossary On
Versions: 1 2 3 4 5 6 7 8 9 10 11 12 13 14 15 16 17 18 19 20 21 22 23 24 25 26 27 28
000
ASUS43 KEAX 171010
RWREAX

WEATHER ROUNDUP FOR EASTERN KANSAS AND NORTHWEST MISSOURI
NATIONAL WEATHER SERVICE KANSAS CITY/PLEASANT HILL MO
400 AM CST WED JAN 17 2018

KSZ040-057-103>105-MOZ028-029-037-043-171100-
...KANSAS CITY METROPOLITAN AREA...

CITY           SKY/WX    TMP DP  RH WIND       PRES   REMARKS
K.C. INTL      CLEAR     -1  -5  82 SW6       30.65F WCI -13
K.C. DOWNTOWN  CLOUDY     4  -1  80 SW6       30.69S WCI  -7
LEES SUMMIT    CLOUDY     1  -3  83 SW6       30.66F WCI -10
OLATHE - IXD   CLOUDY    -2  -5  87 S5        30.66F WCI -12
OLATHE - OJC   CLOUDY    -1  -4  87 SW3       30.65F
LAWRENCE       CLOUDY    -6 -11  79 CALM      30.68F

$$

MOZ001>008-011>017-020>025-030>033-038>040-044>046-053-054-171100-
...NORTHERN AND CENTRAL MISSOURI...

CITY           SKY/WX    TMP DP  RH WIND       PRES   REMARKS
ST. JOSEPH       N/A    N/A N/A N/A MISG      30.67F
MOSBY          CLOUDY    -4  -9  77 CALM      30.68F
WARRENSBURG    CLOUDY    -6  -9  84 CALM      30.69F
WHITEMAN AFB   CLEAR     -2  -7  78 SW3       30.63F
CLINTON        CLOUDY    -4  -8  84 CALM      30.70S
SEDALIA        CLOUDY     0  -2  91 SW6       30.68F WCI -12
WARSAW         NOT AVBL
CHILLICOTHE      N/A     -4  -9  79 CALM      30.68F
KIRKSVILLE     CLOUDY    -2  -4  91 CALM      30.63F

$$

MOZ041-047>049-056>058-063>065-088>090-097-171100-
...EASTERN AND SOUTHERN MISSOURI...

CITY           SKY/WX    TMP DP  RH WIND       PRES   REMARKS
ST. LOUIS INTL CLEAR      4   0  83 W6        30.68S WCI  -7
SPIRIT OF STL  CLEAR      3  -1  83 W3        30.69S
COLUMBIA       CLOUDY     0  -4  83 W6        30.66F WCI -12
JEFFERSON CITY PTCLDY    -1  -5  82 CALM      30.71F
ROLLA          CLOUDY    -1  -3  91 W6        30.64F WCI -13
OSAGE BEACH    CLOUDY    -7 -13  75 CALM      30.69F
SPRINGFIELD    CLOUDY    -7 -11  83 CALM      30.65S
BRANSON        CLOUDY     1  -2  85 CALM      30.67S
JOPLIN         CLOUDY    -2  -5  87 CALM      30.70S
WEST PLAINS    CLOUDY    -1  -6  79 W3        30.64S

$$

IAZ060-094-KSZ022-034>040-054-083-096-NEZ052-066-093-171100-
...KANSAS...SOUTHEAST NEBRASKA AND IOWA...

CITY           SKY/WX    TMP DP  RH WIND       PRES   REMARKS
TOPEKA         CLOUDY    -2  -7  79 CALM      30.68S
MANHATTAN      CLOUDY    -3  -7  82 CALM      30.66F
EMPORIA        CLOUDY     2  -3  80 W3        30.65F
CHANUTE        CLEAR      2  -3  80 CALM      30.69S
WICHITA        CLOUDY     4   0  83 S5        30.65F WCI  -5
OMAHA          CLOUDY     1  -3  83 S9        30.59F WCI -14
LINCOLN        CLOUDY     3  -2  79 S3        30.58F
FALLS CITY     CLOUDY    -4 -10  75 CALM      30.64F
LAMONI         CLOUDY    -1  -6  79 SW9       30.59F WCI -16
DES MOINES     CLOUDY    -2  -7  79 SW3       30.59F

$$





USA.gov is the U.S. government's official web portal to all federal, state and local government web resources and services.